[[{"header":{"parameterUnit":"m.s-1","parameterCategory":2,"la1":30.2991,"la2":30.254,"lo1":-89.0895,"lo2":-89.0444,"dy":0.0017,"dx":0.0017,"nx":28,"ny":28,"refTime":"2025-03-23T09:00:00:Z","depth":"0","parameterNumber":2,"parameterNumberName":"U-component_of_CURRENTS"},"data":[0,0,0,0,0,0,0,0,0,0,0,0,0,0,0,0,0,0,0,0,0,0,0,0,0,0,0,0,0,0,0,0,0,0,0,0,0,0,0,0,0,0,0,0,0,0,0,0,0,0,0,0,0,0,0,0,0,0,0.2579,0.2579,0,0.2601,0.2602,0.2602,0.2575,0.2574,0.2573,0.2572,0.2471,0.247,0.2468,0,0,0,0,0,0,0,0,0,0,0,0,0,0.2526,0.2527,0.2579,0.2579,0.2579,0.2601,0.2602,0.2602,0.2575,0.2574,0.2573,0.2571,0.2472,0.247,0.2468,0,0,0,0,0,0,0,0,0,0,0,0,0,0.255,0.2527,0.2579,0.2568,0.2567,0.2601,0.2602,0.2602,0.2576,0.2574,0.2572,0.2571,0.2473,0.247,0.2468,0.2486,0,0,0.246,0.2459,0,0,0,0,0,0,0,0,0.2548,0.2552,0.2569,0.2569,0.2568,0.2583,0.2546,0.2557,0.2576,0.2573,0.2572,0.257,0.2498,0.2493,0.2504,0.2481,0.2477,0.246,0.2459,0.2458,0.2457,0,0,0,0,0,0,0,0.2547,0.2551,0.2589,0.257,0.2569,0.2566,0.2567,0.2549,0.2543,0.2574,0.2571,0.2573,0.2496,0.2507,0.2501,0.2475,0.246,0.2458,0.2456,0.2455,0.2483,0.2485,0,0,0,0,0,0,0.2543,0.2549,0.2588,0.259,0.2552,0.2568,0.257,0.2581,0.2546,0.254,0.2574,0.2571,0.2512,0.2504,0.2498,0.2577,0.2458,0.2455,0.2454,0.2481,0.2484,0.2486,0,0,0,0,0,0,0.2542,0.2547,0.2587,0.2568,0.2573,0.2571,0.2583,0.2582,0.2598,0.2548,0.2539,0.2592,0.251,0.2501,0.2505,0.2569,0.2454,0.2452,0.2479,0.2482,0.2485,0.2695,0,0,0,0,0,0,0.2541,0.2547,0.2554,0.2569,0.2574,0.264,0.2584,0.2583,0.2601,0.2598,0.256,0.2549,0.2508,0.2509,0.2502,0.2564,0.245,0.2476,0.248,0.2484,0.2685,0.2705,0.2722,0,0,0,0,0,0.2539,0.2556,0.2555,0.2559,0.2585,0.2643,0.2648,0.2639,0.2603,0.2641,0.2605,0.255,0.253,0.251,0.2501,0.2563,0.2474,0.2479,0.2484,0.2677,0.2701,0.2722,0,0,0,0,0,0,0.2533,0.2556,0.2554,0.2576,0.2622,0.2638,0.2656,0.2653,0.2657,0.2639,0.2582,0.2571,0.2608,0.2547,0.2525,0.258,0.2492,0.2495,0.2642,0.2664,0.2682,0.2657,0.2448,0,0,0,0,0,0.2538,0.2559,0.2593,0.2616,0.2637,0.2651,0.2667,0.2674,0.2676,0.2677,0.2657,0.2623,0.2624,0.2611,0.2604,0.2624,0.2602,0.2655,0.2673,0.2689,0.2662,0.2699,0.2719,0.2503,0.2503,0.2502,0,0,0.254,0.2555,0.2566,0.2617,0.2639,0.2691,0.2658,0.2702,0.2742,0.2662,0.2705,0.2698,0.2647,0.2692,0.2699,0.2644,0.2756,0.2696,0.2711,0.2673,0.2707,0.2728,0.2747,0.2506,0.2505,0.2505,0,0,0.2564,0.2576,0.2608,0.2653,0.2701,0.2724,0.2744,0.2787,0.2804,0.2849,0.2813,0.2838,0.2823,0.2822,0.2807,0.2911,0.2866,0.2913,0.2973,0.3013,0.3031,0.3047,0.3125,0.3145,0.2906,0.2906,0.2907,0,0.2563,0.2611,0.2632,0.2682,0.2717,0.2743,0.28,0.2835,0.2878,0.2892,0.2879,0.2901,0.2883,0.2921,0.2969,0.2956,0.2975,0.2904,0.304,0.3054,0.3066,0.3141,0.3161,0.2917,0.2916,0.2915,0.2914,0,0.2621,0.2664,0.2692,0.2762,0.2809,0.287,0.2921,0.2973,0.2989,0.3009,0.3069,0.3069,0.306,0.3096,0.3062,0.3146,0.3138,0.3081,0.2992,0.3101,0.3173,0.3191,0.2933,0.2929,0.2925,0.2923,0,0,0.2598,0.2711,0.2718,0.2772,0.2857,0.2907,0.298,0.3054,0.3081,0.3144,0.3183,0.3236,0.3222,0.3203,0.3197,0.324,0.3396,0.3202,0.3199,0.3293,0.3524,0.3401,0.3407,0.3371,0.3373,0.3375,0.357,0,0.264,0.2751,0.2787,0.2896,0.2966,0.3011,0.3069,0.3131,0.3171,0.3222,0.3244,0.3278,0.3265,0.3276,0.3326,0.3359,0.3436,0.3349,0.3386,0.3388,0.3276,0.3419,0.3164,0.3302,0.3585,0.3588,0.359,0,0.2677,0.2754,0.2867,0.2974,0.3001,0.3055,0.314,0.3197,0.3259,0.3281,0.3317,0.3323,0.34,0.3367,0.3494,0.3441,0.3496,0.3534,0.3541,0.3342,0.3292,0.3219,0.3321,0.3158,0.3615,0.3613,0.3611,0,0.2676,0.28,0.2894,0.2939,0.3062,0.3097,0.3145,0.3207,0.3246,0.331,0.3331,0.3404,0.343,0.3514,0.3574,0.3551,0.371,0.368,0.364,0.3635,0.3371,0.3336,0.331,0.3786,0.3785,0.3785,0.3784,0,0.2714,0.2786,0.2898,0.2961,0.3041,0.3102,0.3165,0.3214,0.3266,0.3308,0.3346,0.3387,0.3463,0.3543,0.3617,0.3673,0.3746,0.3672,0.367,0.3444,0.3414,0.3215,0.3191,0.3792,0.379,0.3789,0.3788,0,0.2711,0.2792,0.2906,0.3027,0.3054,0.3105,0.3175,0.3213,0.3254,0.331,0.333,0.3399,0.3502,0.3585,0.3722,0.3697,0.3654,0.3788,0.3532,0.3494,0.3257,0.3255,0.3167,0.3102,0.3788,0.3786,0.3784,0,0.2721,0.2788,0.2935,0.2988,0.3042,0.3111,0.3148,0.3205,0.3237,0.3317,0.3343,0.3437,0.351,0.3645,0.3615,0.3714,0.3623,0.3504,0.3389,0.3219,0.3219,0.3144,0.3093,0.3183,0.3177,0.3171,0.3167,0,0.2748,0.2803,0.2904,0.3012,0.307,0.3119,0.3171,0.3194,0.3253,0.3292,0.3359,0.3427,0.3488,0.3427,0.3467,0.3471,0.3261,0.3396,0.3271,0.2781,0.2645,0.2586,0.3128,0.312,0.3124,0.3128,0.3131,0.3132,0.2755,0.2829,0.2959,0.3046,0.3096,0.3119,0.3127,0.3172,0.321,0.3225,0.3318,0.3313,0.322,0.3226,0.3204,0.2846,0.3009,0.2689,0.2731,0.2694,0.2506,0.2958,0.2891,0.2894,0.2897,0.2899,0.2901,0,0.2796,0.289,0.2979,0.3082,0.3096,0.3119,0.3137,0.3107,0.3119,0.3121,0.3151,0.2965,0.2808,0.2676,0.2326,0.2171,0.2097,0.2074,0.1891,0.1904,0.2324,0.2159,0.1862,0.1862,0.1862,0.1862,0.1863,0.1863,0.2836,0.2954,0.301,0.306,0.3086,0.3048,0.3031,0.2983,0.2943,0.2786,0.2628,0.2599,0.2357,0.1997,0.1638,0.1583,0.1496,0.1382,0.1525,0.1757,0.1815,0.1871,0.1705,0.1317,0.1317,0.0929,0.0926,0.0923]},{"header":{"parameterUnit":"m.s-1","parameterCategory":2,"la1":30.2991,"la2":30.254,"lo1":-89.0895,"lo2":-89.0444,"dy":0.0017,"dx":0.0017,"nx":28,"ny":28,"refTime":"2025-03-23T09:00:00:Z","depth":"0","parameterNumber":3,"parameterNumberName":"V-component_of_CURRENTS"},"data":[0,0,0,0,0,0,0,0,0,0,0,0,0,0,0,0,0,0,0,0,0,0,0,0,0,0,0,0,0,0,0,0,0,0,0,0,0,0,0,0,0,0,0,0,0,0,0,0,0,0,0,0,0,0,0,0,0,0,-0.0157,-0.0157,0,-0.0179,-0.0179,-0.018,-0.0191,-0.0191,-0.0191,-0.0191,-0.022,-0.022,-0.0221,0,0,0,0,0,0,0,0,0,0,0,0,0,-0.0131,-0.0131,-0.0157,-0.0157,-0.0158,-0.0179,-0.0179,-0.018,-0.0191,-0.0191,-0.0191,-0.0191,-0.0219,-0.022,-0.0221,0,0,0,0,0,0,0,0,0,0,0,0,0,-0.0147,-0.0131,-0.0157,-0.0165,-0.0166,-0.0179,-0.0179,-0.018,-0.0191,-0.0191,-0.0191,-0.0191,-0.0219,-0.022,-0.0222,-0.0231,0,0,-0.0225,-0.0226,0,0,0,0,0,0,0,0,-0.0146,-0.0148,-0.0164,-0.0165,-0.0166,-0.0182,-0.0181,-0.0197,-0.0191,-0.0183,-0.0191,-0.0191,-0.0207,-0.0209,-0.0215,-0.0232,-0.0233,-0.0225,-0.0226,-0.0227,-0.0227,0,0,0,0,0,0,0,-0.0145,-0.0147,-0.0167,-0.0164,-0.0165,-0.017,-0.0172,-0.0184,-0.0196,-0.0183,-0.0184,-0.0185,-0.0208,-0.0213,-0.0215,-0.0234,-0.0225,-0.0226,-0.0227,-0.0228,-0.0276,-0.0277,0,0,0,0,0,0,-0.0141,-0.0146,-0.0166,-0.0167,-0.0155,-0.017,-0.0173,-0.0177,-0.0196,-0.0198,-0.0185,-0.0186,-0.0211,-0.0214,-0.0217,-0.0244,-0.0227,-0.0228,-0.0229,-0.0276,-0.0276,-0.0277,0,0,0,0,0,0,-0.014,-0.0142,-0.0165,-0.0156,-0.0159,-0.017,-0.0176,-0.0178,-0.0182,-0.0197,-0.0199,-0.0187,-0.0211,-0.0215,-0.0234,-0.0245,-0.0228,-0.0229,-0.0275,-0.0276,-0.0277,-0.0289,0,0,0,0,0,0,-0.0139,-0.0142,-0.0142,-0.0156,-0.016,-0.0171,-0.0176,-0.0178,-0.0183,-0.0183,-0.0199,-0.0202,-0.0212,-0.0232,-0.0235,-0.0246,-0.023,-0.0274,-0.0275,-0.0276,-0.0288,-0.0291,-0.0293,0,0,0,0,0,-0.0138,-0.0137,-0.0142,-0.0144,-0.016,-0.0171,-0.0173,-0.0181,-0.0183,-0.0185,-0.0202,-0.0201,-0.0241,-0.0234,-0.0237,-0.0249,-0.0274,-0.0275,-0.0276,-0.0287,-0.029,-0.0292,0,0,0,0,0,0,-0.0124,-0.0138,-0.0144,-0.0147,-0.0158,-0.0173,-0.0172,-0.018,-0.0194,-0.0195,-0.021,-0.0214,-0.0236,-0.0239,-0.0231,-0.0266,-0.0257,-0.0259,-0.0264,-0.0267,-0.0269,-0.0261,-0.0231,0,0,0,0,0,-0.0121,-0.0125,-0.014,-0.0143,-0.0145,-0.0159,-0.0163,-0.0171,-0.0186,-0.0191,-0.0206,-0.0222,-0.0245,-0.0252,-0.0269,-0.0286,-0.0246,-0.0295,-0.0297,-0.0299,-0.0295,-0.0246,-0.0242,-0.0281,-0.0281,-0.0281,0,0,-0.0117,-0.0125,-0.0127,-0.014,-0.0147,-0.0156,-0.0161,-0.0167,-0.0184,-0.0193,-0.0216,-0.0231,-0.0251,-0.0275,-0.0285,-0.0278,-0.0264,-0.03,-0.0302,-0.0297,-0.0246,-0.0242,-0.0238,-0.0282,-0.0282,-0.0282,0,0,-0.0108,-0.0116,-0.0115,-0.0124,-0.0135,-0.0149,-0.015,-0.0167,-0.0182,-0.0204,-0.0221,-0.024,-0.0267,-0.0286,-0.03,-0.0321,-0.0279,-0.0328,-0.0331,-0.0283,-0.0279,-0.0275,-0.0199,-0.0188,-0.0327,-0.0327,-0.0327,0,-0.01,-0.0108,-0.0116,-0.0119,-0.0131,-0.0145,-0.0155,-0.0172,-0.0197,-0.0209,-0.0211,-0.025,-0.0272,-0.0301,-0.0319,-0.0325,-0.0278,-0.032,-0.0283,-0.0279,-0.0274,-0.0198,-0.0185,-0.0327,-0.0327,-0.0327,-0.0327,0,-0.0092,-0.0101,-0.01,-0.0115,-0.0129,-0.0138,-0.0165,-0.0183,-0.02,-0.0213,-0.024,-0.0264,-0.028,-0.03,-0.0322,-0.0316,-0.0283,-0.0291,-0.0272,-0.027,-0.019,-0.0177,-0.0329,-0.0328,-0.0328,-0.0328,0,0,-0.0066,-0.0092,-0.009,-0.0107,-0.0131,-0.0145,-0.0173,-0.0203,-0.0207,-0.0234,-0.0232,-0.0292,-0.0286,-0.0301,-0.0322,-0.03,-0.0235,-0.0286,-0.0283,-0.0201,-0.0096,-0.0083,-0.0066,-0.0229,-0.0227,-0.0226,-0.0044,0,-0.0059,-0.0073,-0.0089,-0.0113,-0.0128,-0.0158,-0.0177,-0.0204,-0.022,-0.0216,-0.0242,-0.0242,-0.0291,-0.0284,-0.0277,-0.0242,-0.0204,-0.0281,-0.0118,-0.0112,-0.0094,-0.0053,-0.0043,0.0119,-0.0031,-0.0029,-0.0027,0,-0.0042,-0.0062,-0.0084,-0.0123,-0.0129,-0.0144,-0.0177,-0.0196,-0.02,-0.02,-0.0204,-0.0201,-0.0193,-0.0218,-0.0148,-0.0189,-0.0146,-0.0117,-0.0109,-0.0084,-0.0076,0.0088,0.0149,0.0079,-0.0006,-0.0008,-0.001,0,-0.0026,-0.0058,-0.0083,-0.0096,-0.0136,-0.0154,-0.0173,-0.0188,-0.0183,-0.0172,-0.0131,-0.0134,-0.0089,-0.0063,-0.0021,-0.0067,0.0093,0.0045,0.0102,0.0106,0.0152,0.0155,0.017,0.0114,0.0113,0.0113,0.0112,0,-0.0014,-0.003,-0.0077,-0.009,-0.011,-0.0142,-0.014,-0.0157,-0.0134,-0.0086,-0.0109,-0.0043,-0.0045,0.0035,0.0041,0.0133,0.0155,0.0123,0.0153,0.0148,0.0149,0.0118,0.0068,0.012,0.0118,0.0117,0.0116,0,0.0013,-0.0015,-0.0046,-0.0092,-0.0102,-0.0115,-0.011,-0.009,-0.0076,-0.0004,0.0017,0.0068,0.0179,0.0196,0.0285,0.0247,0.0296,0.0337,0.0341,0.0366,0.0298,0.0248,0.0339,0.0326,0.0421,0.0422,0.0424,0,0.0026,0.0011,-0.0038,-0.0041,-0.006,-0.0072,-0.0057,-0.0061,-0.0018,0.0079,0.0138,0.0253,0.0368,0.0495,0.0469,0.0523,0.0427,0.0512,0.0391,0.0314,0.0281,0.0244,0.0222,0.047,0.0472,0.0473,0.0474,0,0.0042,0.0026,0.0002,-0.0002,-0.0001,0.0013,0.0036,0.0082,0.012,0.0216,0.0365,0.0468,0.0579,0.0656,0.0683,0.0659,0.0454,0.0535,0.046,0.0325,0.0286,0.0282,0.0344,0.0484,0.0483,0.0482,0.0482,0.0481,0.0058,0.0053,0.0033,0.0033,0.0048,0.0104,0.0154,0.0227,0.0336,0.0521,0.0571,0.0795,0.0792,0.0843,0.0768,0.0592,0.0582,0.0513,0.047,0.0448,0.0386,0.0474,0.0626,0.0626,0.0625,0.0625,0.0625,0,0.0068,0.0071,0.0077,0.0085,0.0132,0.0134,0.0227,0.0321,0.0496,0.0713,0.0889,0.1073,0.1048,0.0925,0.0702,0.0555,0.0465,0.046,0.0391,0.0378,0.0477,0.0421,0.0529,0.0529,0.0529,0.0529,0.0529,0.0529,0.0075,0.008,0.0087,0.0155,0.0188,0.0287,0.0362,0.0524,0.0701,0.1027,0.1243,0.1394,0.1288,0.0821,0.0513,0.0435,0.0318,0.0319,0.0268,0.0287,0.0287,0.0287,0.0221,0.0284,0.0284,0.0181,0.018,0.0179]}],[{"header":{"parameterUnit":"m.s-1","parameterCategory":2,"la1":30.2991,"la2":30.254,"lo1":-89.0895,"lo2":-89.0444,"dy":0.0017,"dx":0.0017,"nx":28,"ny":28,"refTime":"2025-03-23T09:00:00:Z","depth":"2","parameterNumber":2,"parameterNumberName":"U-component_of_CURRENTS"},"data":[0,0,0,0,0,0,0,0,0,0,0,0,0,0,0,0,0,0,0,0,0,0,0,0,0,0,0,0,0,0,0,0,0,0,0,0,0,0,0,0,0,0,0,0,0,0,0,0,0,0,0,0,0,0,0,0,0,0,0.1459,0.1459,0,0.1433,0.1433,0.1433,0.1432,0.1432,0.1433,0.1433,0.1432,0.1432,0.1432,0,0,0,0,0,0,0,0,0,0,0,0,0,0.1486,0.1486,0.1459,0.1459,0.1459,0.1433,0.1433,0.1432,0.1432,0.1432,0.1433,0.1433,0.1433,0.1432,0.1432,0,0,0,0,0,0,0,0,0,0,0,0,0,0.1469,0.1486,0.146,0.1456,0.1455,0.1433,0.1433,0.1432,0.1432,0.1432,0.1433,0.1433,0.1433,0.1432,0.1432,0.1418,0,0,0.143,0.143,0,0,0,0,0,0,0,0,0.147,0.1468,0.1456,0.1456,0.1455,0.1436,0.1442,0.1429,0.1432,0.144,0.1433,0.1433,0.1436,0.1435,0.1429,0.1418,0.1418,0.143,0.143,0.143,0.143,0,0,0,0,0,0,0,0.1471,0.1469,0.1449,0.1456,0.1455,0.1447,0.1446,0.1439,0.1436,0.144,0.144,0.1437,0.1436,0.1429,0.1429,0.1418,0.143,0.143,0.1429,0.1429,0.1498,0.15,0,0,0,0,0,0,0.1475,0.147,0.145,0.1448,0.1464,0.1446,0.1444,0.1442,0.1435,0.1435,0.1436,0.1437,0.143,0.1429,0.1429,0.1465,0.143,0.1429,0.1429,0.1496,0.1498,0.15,0,0,0,0,0,0,0.1476,0.1473,0.1451,0.1459,0.1455,0.1446,0.1442,0.1441,0.1439,0.1433,0.1433,0.1437,0.143,0.1429,0.144,0.1464,0.1429,0.1429,0.1493,0.1496,0.1499,0.1505,0,0,0,0,0,0,0.1477,0.1474,0.1478,0.1459,0.1455,0.1439,0.1442,0.144,0.1437,0.1437,0.1433,0.1433,0.143,0.1441,0.144,0.1462,0.1428,0.149,0.1495,0.1498,0.1503,0.1508,0.1513,0,0,0,0,0,0.1478,0.147,0.1478,0.1476,0.1459,0.1439,0.1436,0.1431,0.1436,0.1432,0.1443,0.1434,0.1467,0.1441,0.144,0.1463,0.1488,0.1493,0.1498,0.15,0.1507,0.1513,0,0,0,0,0,0,0.1481,0.1469,0.1478,0.1468,0.146,0.1439,0.1437,0.1433,0.1436,0.1446,0.1441,0.1441,0.147,0.1468,0.1441,0.1502,0.1484,0.1489,0.1487,0.1493,0.1499,0.1544,0.1428,0,0,0,0,0,0.1485,0.1485,0.147,0.1468,0.1463,0.1454,0.1448,0.1446,0.1443,0.1444,0.145,0.1468,0.1487,0.1489,0.1508,0.1518,0.1555,0.1543,0.1548,0.1552,0.1594,0.1646,0.1659,0.1516,0.1516,0.1516,0,0,0.1489,0.1484,0.1485,0.1471,0.1467,0.1456,0.1452,0.1446,0.1454,0.1444,0.1469,0.1485,0.1498,0.1525,0.1538,0.1523,0.1615,0.1558,0.1561,0.1601,0.1652,0.1666,0.1678,0.1519,0.1519,0.1518,0,0,0.149,0.149,0.1489,0.1481,0.1476,0.1465,0.1464,0.1457,0.1474,0.1488,0.1503,0.1532,0.1546,0.1568,0.1577,0.1623,0.1647,0.1637,0.1688,0.1736,0.1748,0.1759,0.1825,0.1842,0.1631,0.1631,0.1631,0,0.15,0.1489,0.1485,0.1479,0.148,0.1469,0.1468,0.1473,0.1479,0.1518,0.1504,0.1578,0.1571,0.1623,0.165,0.1633,0.1683,0.1648,0.1742,0.1753,0.1765,0.1829,0.1848,0.1632,0.1632,0.1632,0.1632,0,0.1489,0.1488,0.1485,0.148,0.1482,0.1474,0.1482,0.1508,0.1527,0.155,0.1622,0.1624,0.1676,0.1674,0.1674,0.1761,0.1779,0.1742,0.1717,0.1779,0.1844,0.1863,0.1634,0.1633,0.1633,0.1633,0,0,0.1498,0.1481,0.1484,0.1498,0.1483,0.1493,0.152,0.1557,0.1618,0.1631,0.1719,0.1737,0.1767,0.1786,0.1787,0.1831,0.1932,0.1835,0.1837,0.189,0.2078,0.1945,0.1953,0.1915,0.1918,0.1921,0.2091,0,0.1495,0.1486,0.1484,0.15,0.1497,0.152,0.156,0.1609,0.1655,0.1741,0.1771,0.1839,0.1796,0.1836,0.1873,0.1925,0.1986,0.1892,0.2024,0.2029,0.1891,0.1971,0.1764,0.1886,0.211,0.2113,0.2115,0,0.1481,0.1484,0.1488,0.1539,0.1549,0.1573,0.1672,0.1706,0.1812,0.1861,0.1926,0.1956,0.2029,0.1983,0.2092,0.2042,0.2088,0.2115,0.212,0.2016,0.1931,0.1863,0.1912,0.2147,0.2145,0.2142,0.214,0,0.1484,0.1497,0.1509,0.1514,0.1558,0.1617,0.1664,0.1762,0.1821,0.195,0.2005,0.2088,0.2129,0.2195,0.2212,0.2185,0.2343,0.229,0.2222,0.2214,0.2076,0.2048,0.2408,0.2408,0.2407,0.2407,0.2406,0,0.1464,0.1484,0.1525,0.1532,0.1615,0.1654,0.1762,0.183,0.1935,0.202,0.207,0.213,0.2189,0.2254,0.2288,0.2302,0.2388,0.2275,0.2255,0.207,0.2041,0.2291,0.2275,0.2413,0.2412,0.2411,0.2409,0,0.1453,0.1456,0.1497,0.1573,0.1607,0.1683,0.1795,0.1875,0.196,0.2073,0.2112,0.2191,0.2261,0.2303,0.2415,0.2362,0.2412,0.2402,0.2184,0.2133,0.225,0.2233,0.2373,0.237,0.2367,0.2365,0.2363,0,0.1424,0.1438,0.1533,0.1583,0.1624,0.1725,0.1797,0.1889,0.1956,0.2091,0.2142,0.2234,0.2251,0.2328,0.2296,0.2328,0.2397,0.2148,0.2033,0.2284,0.2251,0.2238,0.2225,0.1876,0.187,0.1866,0.1862,0,0.1406,0.1458,0.1515,0.1603,0.1688,0.1755,0.1856,0.189,0.2001,0.2044,0.2106,0.2125,0.2183,0.2067,0.2076,0.2069,0.2113,0.2049,0.2402,0.1879,0.1817,0.1783,0.1787,0.182,0.1824,0.1827,0.183,0.1831,0.1425,0.1472,0.1554,0.1642,0.172,0.1759,0.1774,0.1825,0.1851,0.1858,0.1975,0.1908,0.1919,0.178,0.1743,0.1722,0.1879,0.1789,0.1803,0.1823,0.1697,0.1629,0.1577,0.158,0.1582,0.1584,0.1586,0,0.1438,0.1492,0.1576,0.1648,0.1676,0.1746,0.1789,0.1728,0.1669,0.1688,0.1665,0.1475,0.1387,0.1432,0.1316,0.1306,0.1303,0.1263,0.1243,0.1285,0.1322,0.1171,0.0913,0.0911,0.0909,0.0907,0,0,0.145,0.151,0.1544,0.1569,0.1618,0.1606,0.1601,0.1473,0.1423,0.1264,0.1193,0.1277,0.1343,0.1089,0.1066,0.0968,0.1119,0.0927,0.1466,0.1483,0.1518,0.1624,0.1437,0,0,0,0,0]},{"header":{"parameterUnit":"m.s-1","parameterCategory":2,"la1":30.2991,"la2":30.254,"lo1":-89.0895,"lo2":-89.0444,"dy":0.0017,"dx":0.0017,"nx":28,"ny":28,"refTime":"2025-03-23T09:00:00:Z","depth":"2","parameterNumber":3,"parameterNumberName":"V-component_of_CURRENTS"},"data":[0,0,0,0,0,0,0,0,0,0,0,0,0,0,0,0,0,0,0,0,0,0,0,0,0,0,0,0,0,0,0,0,0,0,0,0,0,0,0,0,0,0,0,0,0,0,0,0,0,0,0,0,0,0,0,0,0,0,0.0063,0.0063,0,0.0049,0.0049,0.0049,0.0034,0.0034,0.0034,0.0034,-0.0008,-0.0009,-0.001,0,0,0,0,0,0,0,0,0,0,0,0,0,0.0048,0.0049,0.0063,0.0063,0.0063,0.0049,0.0049,0.0049,0.0034,0.0034,0.0034,0.0034,-0.0007,-0.0008,-0.001,0,0,0,0,0,0,0,0,0,0,0,0,0,0.0045,0.0049,0.0063,0.0055,0.0055,0.0049,0.0049,0.0048,0.0034,0.0034,0.0034,0.0034,-0.0007,-0.0008,-0.001,-0.0018,0,0,-0.0015,-0.0015,0,0,0,0,0,0,0,0,0.0045,0.0046,0.0057,0.0056,0.0055,0.0045,0.0028,0.0025,0.0034,0.004,0.0034,0.0034,0.0008,0.0006,0.0001,-0.002,-0.0021,-0.0015,-0.0016,-0.0016,-0.0017,0,0,0,0,0,0,0,0.0046,0.0046,0.0056,0.0057,0.0056,0.0042,0.0042,0.0028,0.0024,0.004,0.0039,0.004,0.0007,0.0003,0.0,-0.0022,-0.0015,-0.0016,-0.0017,-0.0018,-0.0075,-0.0076,0,0,0,0,0,0,0.0052,0.0046,0.0057,0.0056,0.0051,0.0043,0.0042,0.0047,0.0024,0.0021,0.004,0.0039,0.0006,0.0002,-0.0001,-0.0009,-0.0016,-0.0018,-0.0019,-0.0075,-0.0075,-0.0076,0,0,0,0,0,0,0.0052,0.0053,0.0057,0.0052,0.0051,0.0044,0.0049,0.0047,0.0045,0.0025,0.0021,0.0041,0.0006,0.0001,-0.0015,-0.0011,-0.0019,-0.002,-0.0074,-0.0075,-0.0076,-0.0026,0,0,0,0,0,0,0.0051,0.0053,0.0055,0.0052,0.0052,0.0063,0.0049,0.0047,0.0046,0.0045,0.0025,0.002,0.0005,-0.0012,-0.0016,-0.0013,-0.0021,-0.0073,-0.0074,-0.0075,-0.0027,-0.0025,-0.0023,0,0,0,0,0,0.0051,0.0059,0.0056,0.0057,0.0057,0.0064,0.0063,0.0055,0.0047,0.0052,0.0031,0.0021,-0.0022,-0.0013,-0.0018,-0.0015,-0.0073,-0.0074,-0.0075,-0.0028,-0.0025,-0.0023,0,0,0,0,0,0,0.0053,0.0059,0.0055,0.0064,0.0067,0.0062,0.0064,0.0059,0.0046,0.004,0.0019,0.0014,-0.0001,-0.0019,-0.0009,-0.0039,-0.0051,-0.0054,-0.0014,-0.0012,-0.001,-0.0002,-0.0023,0,0,0,0,0,0.0055,0.0061,0.0066,0.0071,0.0075,0.0069,0.0069,0.0065,0.0055,0.005,0.0034,0.0009,-0.0011,-0.0019,-0.004,-0.005,-0.0042,-0.0056,-0.0054,-0.0053,-0.0052,-0.0022,-0.0016,-0.008,-0.008,-0.008,0,0,0.0056,0.0059,0.0063,0.0071,0.0071,0.0082,0.0069,0.0073,0.0071,0.0046,0.0035,0.0016,-0.0014,-0.0028,-0.0036,-0.004,-0.0031,-0.0054,-0.0052,-0.0053,-0.0022,-0.0015,-0.0009,-0.0081,-0.0081,-0.0081,0,0,0.0066,0.0068,0.0079,0.0085,0.0089,0.0088,0.0092,0.0089,0.0078,0.0068,0.0044,0.0037,0.0001,-0.0008,-0.002,-0.0022,-0.0024,-0.0044,-0.0023,0.0007,0.0013,0.0019,0.0045,0.0052,-0.0041,-0.0041,-0.0041,0,0.0066,0.0081,0.0082,0.0096,0.0097,0.0095,0.0104,0.0099,0.0086,0.0086,0.0069,0.0047,0.0017,0.0021,-0.0,-0.0013,-0.0006,-0.0022,0.0013,0.0019,0.0024,0.0049,0.0057,-0.0038,-0.0039,-0.0039,-0.0039,0,0.0089,0.0098,0.0106,0.0121,0.0123,0.0132,0.0127,0.0125,0.0111,0.0114,0.0113,0.0086,0.0077,0.006,0.0019,0.0033,0.0024,0.0015,0.0018,0.0034,0.0058,0.0066,-0.0035,-0.0036,-0.0037,-0.0037,0,0,0.0095,0.0118,0.012,0.0124,0.0134,0.0137,0.0138,0.0147,0.0171,0.0154,0.0188,0.0136,0.0136,0.0118,0.0087,0.0095,0.0123,0.0055,0.0055,0.0098,0.0184,0.0145,0.015,0.012,0.0121,0.0122,0.0189,0,0.011,0.0136,0.0139,0.0155,0.0165,0.016,0.0169,0.0175,0.0186,0.0223,0.0211,0.0227,0.0156,0.0157,0.0153,0.014,0.0142,0.0105,0.0145,0.0146,0.0125,0.0157,0.015,0.0206,0.0197,0.0198,0.0199,0,0.0133,0.0143,0.016,0.0171,0.0177,0.0181,0.0203,0.0212,0.0261,0.0274,0.0301,0.0308,0.0314,0.0254,0.0259,0.0235,0.0194,0.0183,0.0186,0.0137,0.0121,0.0184,0.0219,0.0211,0.021,0.0209,0.0209,0,0.0138,0.0156,0.0164,0.017,0.0188,0.0182,0.0186,0.0226,0.0265,0.0316,0.038,0.039,0.0425,0.0384,0.0328,0.0297,0.0345,0.0317,0.0251,0.0249,0.0243,0.0238,0.0311,0.0311,0.0311,0.031,0.031,0,0.0155,0.0163,0.0163,0.0172,0.0186,0.0183,0.0227,0.024,0.0315,0.0415,0.0405,0.05,0.0455,0.0477,0.039,0.0352,0.0399,0.0263,0.0267,0.0257,0.0252,0.0249,0.0241,0.0313,0.0312,0.0312,0.0311,0,0.0161,0.0171,0.0182,0.0188,0.0192,0.0193,0.0249,0.0319,0.036,0.0496,0.0522,0.0606,0.0633,0.0576,0.0547,0.0457,0.0407,0.0367,0.0351,0.0349,0.0276,0.0269,0.033,0.0329,0.0328,0.0328,0.0328,0,0.017,0.0179,0.019,0.0217,0.0216,0.0235,0.0292,0.033,0.0432,0.058,0.0679,0.0735,0.0806,0.0745,0.0594,0.0468,0.0429,0.0365,0.029,0.0282,0.028,0.0274,0.0268,0.0314,0.0313,0.0313,0.0312,0,0.0186,0.0189,0.0207,0.0264,0.0306,0.0368,0.0444,0.054,0.0644,0.0766,0.0945,0.0998,0.0918,0.0809,0.0597,0.0497,0.0382,0.035,0.0388,0.029,0.0266,0.0264,0.0259,0.0309,0.0309,0.0309,0.0309,0.031,0.0202,0.0229,0.0276,0.0332,0.0394,0.0523,0.0611,0.0744,0.0915,0.1094,0.1126,0.116,0.0995,0.0717,0.0553,0.0353,0.0364,0.0282,0.0284,0.0287,0.0253,0.0227,0.0257,0.0257,0.0257,0.0257,0.0257,0,0.0243,0.0297,0.036,0.0454,0.056,0.0558,0.0749,0.0868,0.1097,0.117,0.1273,0.1097,0.0945,0.0723,0.0422,0.0264,0.0247,0.021,0.0224,0.0229,0.0233,0.0196,0.0186,0.0185,0.0184,0.0184,0,0,0.028,0.0367,0.0419,0.0601,0.0663,0.0817,0.0933,0.1094,0.1179,0.1272,0.1233,0.1188,0.0942,0.0713,0.0508,0.0338,0.0316,0.0302,0.0376,0.0422,0.0428,0.0291,0.0242,0,0,0,0,0]}],[{"header":{"parameterUnit":"m.s-1","parameterCategory":2,"la1":30.2991,"la2":30.254,"lo1":-89.0895,"lo2":-89.0444,"dy":0.0017,"dx":0.0017,"nx":28,"ny":28,"refTime":"2025-03-23T09:00:00:Z","depth":"4","parameterNumber":2,"parameterNumberName":"U-component_of_CURRENTS"},"data":[0,0,0,0,0,0,0,0,0,0,0,0,0,0,0,0,0,0,0,0,0,0,0,0,0,0,0,0,0,0,0,0,0,0,0,0,0,0,0,0,0,0,0,0,0,0,0,0,0,0,0,0,0,0,0,0,0,0,0.0638,0.0639,0,0.0637,0.0636,0.0635,0.064,0.0641,0.0642,0.0642,0.0661,0.066,0.066,0,0,0,0,0,0,0,0,0,0,0,0,0,0.0629,0.0628,0.0638,0.0639,0.0639,0.0637,0.0636,0.0635,0.064,0.0641,0.0642,0.0643,0.0661,0.066,0.066,0,0,0,0,0,0,0,0,0,0,0,0,0,0.0624,0.0628,0.0638,0.0647,0.0648,0.0637,0.0636,0.0635,0.064,0.0641,0.0642,0.0643,0.0661,0.0661,0.066,0.0635,0,0,0.0659,0.0659,0,0,0,0,0,0,0,0,0.0624,0.0623,0.0645,0.0646,0.0647,0.0646,0.064,0.0638,0.064,0.0635,0.0642,0.0644,0.0661,0.0661,0.0648,0.0635,0.0636,0.0659,0.0659,0.0659,0.0659,0,0,0,0,0,0,0,0.0624,0.0623,0.063,0.0645,0.0647,0.0645,0.0645,0.0639,0.0637,0.0636,0.0638,0.0648,0.0661,0.0648,0.0649,0.0636,0.0659,0.0659,0.0658,0.0658,0.0688,0.0689,0,0,0,0,0,0,0.0638,0.0624,0.0631,0.0631,0.0646,0.0645,0.0645,0.0639,0.0637,0.0639,0.0647,0.0649,0.0648,0.0649,0.0649,0.0667,0.0659,0.0658,0.0658,0.0687,0.0689,0.069,0,0,0,0,0,0,0.0637,0.0638,0.0631,0.0634,0.0634,0.0645,0.0638,0.0639,0.0648,0.0646,0.0648,0.066,0.0649,0.065,0.0668,0.0666,0.0658,0.0658,0.0686,0.0688,0.0689,0.0671,0,0,0,0,0,0,0.0637,0.0637,0.0642,0.0634,0.0635,0.0629,0.0638,0.0638,0.0655,0.0657,0.0657,0.0658,0.065,0.0669,0.0668,0.0665,0.0658,0.0685,0.0687,0.0689,0.067,0.0672,0.0673,0,0,0,0,0,0.0636,0.0635,0.0641,0.0643,0.0638,0.0629,0.0628,0.0635,0.0654,0.0649,0.0666,0.0659,0.0681,0.0669,0.0668,0.0665,0.0684,0.0686,0.0688,0.067,0.0672,0.0673,0,0,0,0,0,0,0.0636,0.0636,0.0643,0.0643,0.0642,0.0633,0.0639,0.0646,0.0652,0.0666,0.0666,0.0668,0.0689,0.0685,0.0673,0.0684,0.0683,0.0685,0.067,0.0671,0.0673,0.0682,0.0657,0,0,0,0,0,0.0639,0.0639,0.0636,0.0641,0.0641,0.0644,0.0647,0.0651,0.0658,0.0662,0.0665,0.0679,0.0691,0.069,0.07,0.0695,0.0721,0.0697,0.0699,0.0699,0.071,0.0761,0.0768,0.0697,0.0697,0.0697,0,0,0.0643,0.0646,0.0647,0.0642,0.0644,0.0629,0.0647,0.0654,0.0646,0.0663,0.0664,0.0689,0.0698,0.0701,0.0708,0.0696,0.0732,0.0702,0.0702,0.0713,0.0764,0.0771,0.0777,0.0699,0.0698,0.0698,0,0,0.0644,0.0652,0.0646,0.0641,0.0649,0.064,0.0648,0.0646,0.0651,0.0656,0.0678,0.0708,0.0707,0.0714,0.0718,0.0735,0.0749,0.0738,0.0733,0.0782,0.0788,0.0794,0.0823,0.0832,0.0724,0.0724,0.0723,0,0.0654,0.0633,0.0645,0.0635,0.0624,0.0645,0.0622,0.0627,0.0635,0.0647,0.066,0.0709,0.0712,0.0731,0.0735,0.0735,0.0766,0.0718,0.0782,0.0789,0.0795,0.0824,0.0834,0.0723,0.0723,0.0723,0.0723,0,0.0635,0.0623,0.0621,0.0605,0.0597,0.0584,0.0586,0.0591,0.0609,0.0628,0.0672,0.0696,0.0733,0.073,0.0731,0.0774,0.0782,0.0788,0.0773,0.0801,0.083,0.084,0.0722,0.0722,0.0722,0.0723,0,0,0.0636,0.0608,0.0608,0.0584,0.0573,0.0559,0.0554,0.055,0.058,0.0605,0.0648,0.0669,0.0728,0.074,0.076,0.0785,0.0841,0.08,0.0803,0.0821,0.0947,0.0871,0.0875,0.0862,0.0864,0.0866,0.0945,0,0.061,0.0562,0.0562,0.0519,0.048,0.0493,0.0489,0.0506,0.0547,0.0603,0.0656,0.0726,0.0719,0.0768,0.079,0.0854,0.0871,0.0819,0.0927,0.093,0.0851,0.0885,0.0872,0.0952,0.0955,0.0957,0.0958,0,0.0578,0.0541,0.0476,0.0449,0.0441,0.0435,0.044,0.0456,0.0544,0.0588,0.0673,0.0755,0.0828,0.0826,0.092,0.0894,0.0919,0.0944,0.0948,0.0894,0.0873,0.0925,0.0977,0.0975,0.0974,0.0973,0.0971,0,0.0521,0.0486,0.042,0.0405,0.038,0.0378,0.0397,0.0459,0.0512,0.0628,0.0709,0.0797,0.0891,0.0936,0.1002,0.0981,0.1101,0.1079,0.1022,0.1016,0.1068,0.1061,0.1131,0.1131,0.1131,0.1131,0.113,0,0.0464,0.0425,0.0398,0.0356,0.0328,0.035,0.0389,0.0419,0.0543,0.0623,0.0735,0.0824,0.0932,0.1022,0.1037,0.1069,0.1134,0.1033,0.1038,0.1056,0.1048,0.1074,0.1066,0.1134,0.1133,0.1132,0.1132,0,0.0396,0.0382,0.03,0.027,0.029,0.0274,0.0391,0.045,0.056,0.0677,0.0734,0.0894,0.1,0.1077,0.1168,0.1125,0.1153,0.1137,0.1158,0.1161,0.1022,0.1013,0.1087,0.1085,0.1084,0.1082,0.1081,0,0.0356,0.0294,0.0228,0.0232,0.0227,0.0262,0.0319,0.0433,0.0514,0.0698,0.0752,0.0924,0.1004,0.1086,0.1144,0.1177,0.1148,0.1147,0.1068,0.1024,0.1022,0.1015,0.1008,0.1079,0.1078,0.1078,0.1077,0,0.0245,0.0207,0.0132,0.0147,0.0183,0.0227,0.0322,0.0384,0.0525,0.0639,0.0766,0.0856,0.0971,0.1048,0.1092,0.1099,0.1144,0.1129,0.1131,0.1058,0.1015,0.1012,0.1007,0.1072,0.1073,0.1073,0.1073,0,0.0169,0.0093,0.0033,0.0051,0.0103,0.0178,0.0236,0.0354,0.0449,0.0649,0.068,0.0836,0.0956,0.1008,0.1041,0.1059,0.1028,0.0968,0.0978,0.0984,0.0913,0.0841,0.0859,0,0,0,0,0,0.0103,0.0033,0.0001,0.0003,0.0063,0.0119,0.0238,0.0316,0.0455,0.0518,0.0604,0.0698,0.0799,0.0889,0.0887,0.0978,0.1016,0.0968,0.0947,0.1041,0.1047,0.0972,0,0,0,0,0,0,0.0066,-0.0007,-0.0051,-0.0027,0.0011,0.009,0.0161,0.0258,0.0312,0.0454,0.0529,0.0621,0.0746,0.0788,0.0863,0.0882,0.0845,0.1056,0.1053,0.1037,0.1043,0.1048,0.0973,0,0,0,0,0]},{"header":{"parameterUnit":"m.s-1","parameterCategory":2,"la1":30.2991,"la2":30.254,"lo1":-89.0895,"lo2":-89.0444,"dy":0.0017,"dx":0.0017,"nx":28,"ny":28,"refTime":"2025-03-23T09:00:00:Z","depth":"4","parameterNumber":3,"parameterNumberName":"V-component_of_CURRENTS"},"data":[0,0,0,0,0,0,0,0,0,0,0,0,0,0,0,0,0,0,0,0,0,0,0,0,0,0,0,0,0,0,0,0,0,0,0,0,0,0,0,0,0,0,0,0,0,0,0,0,0,0,0,0,0,0,0,0,0,0,0.0183,0.0183,0,0.0182,0.0182,0.0182,0.0185,0.0185,0.0185,0.0185,0.019,0.019,0.019,0,0,0,0,0,0,0,0,0,0,0,0,0,0.0159,0.0159,0.0183,0.0183,0.0183,0.0182,0.0182,0.0182,0.0185,0.0185,0.0185,0.0185,0.019,0.019,0.019,0,0,0,0,0,0,0,0,0,0,0,0,0,0.0165,0.0159,0.0183,0.0184,0.0184,0.0182,0.0182,0.0182,0.0185,0.0185,0.0185,0.0185,0.019,0.019,0.019,0.0188,0,0,0.019,0.019,0,0,0,0,0,0,0,0,0.0165,0.0166,0.0184,0.0184,0.0184,0.0184,0.0175,0.0184,0.0185,0.0185,0.0185,0.0185,0.0188,0.0188,0.0188,0.0188,0.0189,0.019,0.019,0.019,0.019,0,0,0,0,0,0,0,0.0164,0.0166,0.0183,0.0184,0.0184,0.0175,0.0176,0.0177,0.0186,0.0185,0.0185,0.0185,0.0188,0.0188,0.0188,0.0189,0.019,0.019,0.019,0.019,0.0203,0.0204,0,0,0,0,0,0,0.0165,0.0166,0.0183,0.0183,0.0174,0.0175,0.0177,0.0184,0.0186,0.0186,0.0185,0.0185,0.0188,0.0188,0.0188,0.0221,0.019,0.019,0.019,0.0203,0.0203,0.0204,0,0,0,0,0,0,0.0165,0.0167,0.0183,0.0173,0.0175,0.0176,0.0183,0.0184,0.0188,0.0186,0.0186,0.019,0.0188,0.0188,0.0193,0.022,0.019,0.019,0.0203,0.0203,0.0204,0.0265,0,0,0,0,0,0,0.0164,0.0167,0.0173,0.0174,0.0175,0.019,0.0183,0.0184,0.0187,0.0188,0.019,0.019,0.0188,0.0193,0.0193,0.022,0.019,0.0202,0.0203,0.0203,0.0262,0.0267,0.0271,0,0,0,0,0,0.0164,0.0173,0.0174,0.0176,0.0184,0.0191,0.0191,0.0192,0.0188,0.0195,0.0192,0.019,0.0197,0.0193,0.0194,0.0221,0.0202,0.0203,0.0203,0.026,0.0266,0.0271,0,0,0,0,0,0,0.0164,0.0174,0.0175,0.0187,0.0192,0.0191,0.0196,0.0194,0.0198,0.0196,0.0193,0.0193,0.0206,0.0199,0.0195,0.0223,0.02,0.02,0.0243,0.0248,0.0253,0.0272,0.019,0,0,0,0,0,0.0167,0.0178,0.0184,0.0192,0.0197,0.0197,0.0199,0.0199,0.02,0.0202,0.0205,0.0204,0.0208,0.0217,0.0213,0.0231,0.0202,0.0247,0.0251,0.0255,0.0269,0.0226,0.0228,0.0206,0.0206,0.0206,0,0,0.0169,0.0174,0.0181,0.0193,0.0196,0.0213,0.0199,0.0205,0.0225,0.0201,0.0228,0.0216,0.0212,0.0232,0.0238,0.0233,0.0246,0.0256,0.026,0.0272,0.0227,0.0229,0.0231,0.0207,0.0206,0.0206,0,0,0.0177,0.0185,0.0198,0.0208,0.0215,0.0221,0.0225,0.0231,0.0242,0.0257,0.0247,0.0253,0.0258,0.0269,0.0273,0.0299,0.0263,0.0294,0.0346,0.0304,0.0306,0.0307,0.0273,0.027,0.0306,0.0306,0.0306,0,0.0177,0.0201,0.0201,0.0218,0.0239,0.0229,0.0257,0.0264,0.0272,0.0293,0.0273,0.0284,0.0282,0.0313,0.0328,0.0314,0.0277,0.033,0.0311,0.0311,0.0311,0.0276,0.0272,0.0309,0.0309,0.0309,0.0308,0,0.0198,0.0222,0.0231,0.0258,0.0277,0.0296,0.0314,0.0335,0.0342,0.0351,0.0373,0.0355,0.0366,0.0366,0.0361,0.0372,0.0342,0.0313,0.03,0.0317,0.0278,0.0274,0.0314,0.0313,0.0312,0.0311,0,0,0.0194,0.024,0.0245,0.028,0.0306,0.033,0.037,0.0415,0.0443,0.0442,0.047,0.0483,0.0462,0.0464,0.0445,0.0423,0.0398,0.0378,0.0374,0.035,0.0301,0.029,0.0283,0.0355,0.0354,0.0354,0.0274,0,0.0216,0.027,0.0285,0.035,0.0389,0.0411,0.0454,0.049,0.05,0.0518,0.051,0.0516,0.0501,0.0495,0.0474,0.0409,0.0387,0.0422,0.0283,0.0279,0.0272,0.0279,0.0352,0.027,0.0269,0.0268,0.0267,0,0.0235,0.028,0.0349,0.0427,0.0446,0.0484,0.0561,0.0594,0.0617,0.0614,0.0612,0.0582,0.0574,0.053,0.045,0.0466,0.04,0.0344,0.0339,0.0308,0.026,0.0247,0.0258,0.0259,0.026,0.026,0.0261,0,0.0255,0.0324,0.0392,0.0419,0.0498,0.0548,0.0594,0.0636,0.067,0.0668,0.0664,0.0633,0.0606,0.0523,0.0431,0.0429,0.0311,0.0288,0.022,0.0217,0.0223,0.0223,0.0224,0.0224,0.0224,0.0224,0.0224,0,0.0279,0.0332,0.0415,0.0459,0.0553,0.0593,0.0673,0.0701,0.0723,0.074,0.0714,0.0694,0.0597,0.0522,0.0431,0.0315,0.031,0.0235,0.0198,0.0251,0.0254,0.022,0.022,0.0221,0.0222,0.0222,0.0223,0,0.0288,0.0332,0.0423,0.0529,0.0567,0.0639,0.0732,0.0774,0.0786,0.0792,0.0789,0.0739,0.064,0.0539,0.0392,0.0321,0.0205,0.0163,0.0236,0.0203,0.014,0.0145,0.0083,0.0082,0.0081,0.008,0.008,0,0.0294,0.0344,0.0479,0.0539,0.0593,0.0696,0.0759,0.0804,0.0823,0.0809,0.0798,0.0729,0.0674,0.0479,0.0367,0.0198,0.0175,0.0114,0.0133,0.0157,0.0126,0.0132,0.0138,0.0078,0.0078,0.0078,0.0078,0,0.0316,0.0367,0.044,0.0575,0.066,0.0748,0.0824,0.084,0.0857,0.0861,0.0797,0.0709,0.0599,0.0467,0.0342,0.0218,0.0153,0.0105,0.0106,0.0124,0.015,0.0123,0.0129,0.0075,0.0075,0.0076,0.0076,0,0.0325,0.0383,0.0487,0.0596,0.0689,0.0762,0.0818,0.0838,0.0861,0.0824,0.0796,0.0692,0.0631,0.0476,0.0353,0.0241,0.0214,0.0171,0.0168,0.017,0.0223,0.0271,0.0207,0,0,0,0,0,0.0344,0.0408,0.0506,0.0618,0.0699,0.0764,0.0834,0.087,0.0869,0.0822,0.0809,0.0702,0.0535,0.0478,0.0364,0.0337,0.0196,0.02,0.0146,0.0059,0.0062,0.0109,0,0,0,0,0,0,0.0362,0.0449,0.0499,0.0589,0.0666,0.0761,0.081,0.0826,0.0804,0.0787,0.0713,0.0658,0.0515,0.0592,0.0355,0.0323,0.027,0.0126,0.0123,0.0057,0.006,0.0063,0.0112,0,0,0,0,0]}]]